Probability
0 0 0 0 0 0 0 0 0 0 0 0 0 0 0 0 0 0 0 0 0 0 0 0 0 0 0 0 0 0 0 0 0 0 0 0 0 0
0 0 0 0 0 0 0 0 0 0 0 0 0 0 0 0 0 0 0 0 0 0 0 0 0 0 0 0 0 0 0 0 0 0 0 0 0 0
0 0 0 0 0 0 0 0 0 0 0 0 0 0 0 0 0 0 0 0 0 0 0 0 0 0 0 0 0 0 0 0 0 0 0 0 0 0
0 0 0 0 0 0 0 0 0 0 0 0 0 0 0 0 0 0 0 0 0 0 0 0 0 0 0 0 0 0 0 0 0 0 0 0 0 0
0 0 0 0 0 0 0 0 0 0 0 0 0 0 0 0 0 0 0 0 0 0 0 0 0 0 0 0 0 0 0 0 0 0 0 0 0 0
0 0 0 0 0 0 0 0 0 0 0 0 0 0 0 0 0 0 0 0 0 0 0 0 0 0 0 0 0 0 0 0 0 0 0 0 0 0
0 0 0 0 0 0 0 0 0 0 0 0 0 0 0 0 0 0 0 0 0 0 0 0 0 0 0 0 0 0 0 0 0 0 0 0 0 0
0 0 0 0 0 0 0 0 0 0 0 0 0 0 0 0 0 0 0 0 0 0 0 0 0 0 0 0 0 0 0 0 0 0 0 0 0 0
0 0 0 0 0 0 0 0 0 0 0 0 0 0 0 0 0 0 0 0 0 0 0 0 0 0 0 0 0 0 0 0 0 0 0 0 0 0
0 0 0 0 0 0 0 0 0 0 0 0 0 0 0 0 0 0 0 0 0 0 0 0 0 0 0 0 0 0 0 0 0 0 0 0 0 0
0 0 0 0 0 0 0 0 0 0 0 0 0 0 0 0 0 0 0 0 0 0 0 0 0 0 0 0 0 0 0 0 0 0 0 0 0 0
0 0 0 0 0 0 0 0 0 0 0 0 0 0 0 0 0 0 0 0 0 0 0 0 0 0 0 0 0 0 0 0 0 0 0 0 0 0
0 0 0 0 0 0 0 0 0 0 0 0 0 0 0 0 0 0 0 0 0 0 0 0 0 0 0 0 0 0 0 0 0 0 0 0 0 0
0 0 0 0 0 0 0 0 0 0 0 0 0 0 0 0 0 0 0 0 0 0 0 0 0 0 0 0 0 0 0 0 0 0 0 0 0 0
0 0 0 0 0 0 0 0 0 0 0 0 0 0 0 0 0 0 0 0 0 0 0 0 0 0 0 0 0 0 0 0 0 0 0 0 0 0
0 0 0 0 0 0 0 0 0 0 0 0 0 0 0 0 0 0 0 0 0 0 0 0 0 0 0 0 0 0 0 0 0 0 0 0 0 0
0 0 0 0 0 0 0 0 0 0 0 0 0 0 0 0 0 0 0 0 0 0 0 0 0 0 0 0 0 0 0 0 0 0 0 0 0 0
0 0 0 0 0 0 0 0 0 0 0 0 0 0 0 0 0 0 0 0 0 0 0 0 0 0 0 0 0 0 0 0 0 0 0 0 0 0
0 0 0 0 0 0 0 0 0 0 0 0 0 0 0 0 0 0 0 0 0 0 0 0 0 0 0 0 0 0 0 0 0 0 0 0 0 0
0 0 0 0 0 0 0 0 0 0 0 0 0 0 0 0 0 0 0 0 0 0 0 0 0 0 0 0 0 0 0 0 0 0 0 0 0 0
0 0 0 0 0 0 0 0 0 0 0 0 0 0 0 0 0 0 0 0 0 0 0 0 0 0 0 0 0 0 0 0 0 0 0 0 0 0
0 0 0 0 0 0 0 0 0 0 0 0 0 0 0 0 0 0 0 0 0 0 0 0 0 0 0 0 0 0 0 0 0 0 0 0 0 0
0 0 0 0 0 0 0 0 0 0 0 0 0 0 0 0 0 0 0 0 0 0 0 0 0 0 0 0 0 0 0 0 0 0 0 0 0 0
Height
5699 5693 5686 5679 5671 5665 5659 5654 5651 5649 5651 5653 5654 5655 5657 5659 5662 5664 5665 5666 5665 5665 5666 5665 5665 5666 5666 5667 5668 5668 5669 5671 5672 5672 5673 5673 5674 5674
5686 5679 5671 5663 5656 5649 5643 5638 5635 5633 5634 5637 5639 5641 5642 5644 5647 5649 5651 5652 5652 5652 5652 5652 5651 5652 5653 5653 5653 5654 5654 5655 5655 5656 5656 5656 5656 5657
5674 5666 5658 5650 5642 5635 5630 5625 5622 5621 5620 5623 5625 5626 5628 5631 5634 5636 5638 5639 5639 5638 5638 5638 5638 5638 5638 5638 5638 5638 5638 5638 5638 5638 5638 5638 5638 5638
5664 5655 5647 5639 5632 5625 5620 5616 5613 5611 5611 5612 5614 5616 5617 5620 5622 5624 5626 5626 5626 5626 5626 5626 5625 5624 5624 5623 5622 5622 5621 5621 5620 5620 5619 5619 5618 5617
5655 5647 5639 5631 5624 5618 5613 5609 5606 5604 5604 5604 5606 5607 5609 5611 5612 5614 5614 5614 5614 5614 5613 5612 5611 5610 5608 5607 5606 5605 5604 5603 5602 5601 5599 5598 5597 5596
5647 5640 5633 5626 5619 5613 5608 5604 5602 5600 5599 5599 5599 5600 5601 5602 5603 5604 5604 5603 5603 5602 5600 5598 5596 5594 5593 5592 5590 5588 5586 5584 5583 5581 5579 5577 5575 5573
5641 5634 5628 5622 5616 5610 5605 5601 5598 5596 5595 5594 5594 5594 5594 5595 5595 5594 5593 5592 5591 5589 5587 5584 5582 5580 5577 5575 5572 5570 5567 5564 5562 5559 5556 5554 5551 5549
5635 5630 5624 5618 5613 5607 5603 5599 5596 5593 5591 5590 5589 5589 5588 5587 5586 5585 5583 5581 5579 5577 5574 5570 5567 5564 5560 5557 5554 5550 5547 5544 5541 5537 5534 5531 5528 5525
5630 5625 5620 5615 5610 5605 5601 5597 5593 5590 5588 5587 5585 5583 5581 5580 5578 5576 5573 5571 5568 5564 5561 5556 5552 5547 5543 5538 5534 5531 5527 5524 5520 5517 5514 5510 5507 5504
5625 5621 5616 5612 5607 5603 5598 5595 5591 5588 5585 5582 5580 5577 5575 5572 5569 5566 5563 5559 5556 5552 5547 5542 5536 5531 5526 5521 5516 5512 5508 5505 5502 5498 5495 5492 5489 5487
5620 5616 5612 5608 5603 5599 5595 5591 5587 5584 5580 5577 5573 5570 5567 5563 5559 5556 5551 5547 5542 5538 5533 5527 5521 5515 5508 5503 5498 5494 5490 5488 5485 5482 5479 5476 5473 5471
5615 5611 5607 5602 5598 5594 5590 5585 5581 5577 5573 5569 5565 5561 5557 5552 5548 5543 5538 5533 5527 5522 5517 5512 5505 5499 5494 5486 5480 5476 5473 5471 5468 5465 5463 5460 5458 5456
5609 5605 5601 5596 5592 5587 5583 5578 5574 5569 5565 5560 5556 5551 5546 5541 5536 5530 5525 5519 5512 5506 5501 5496 5490 5483 5479 5475 5467 5460 5457 5454 5451 5449 5447 5445 5443 5441
5603 5598 5594 5589 5585 5580 5575 5570 5565 5560 5555 5550 5545 5540 5534 5529 5523 5516 5510 5503 5497 5490 5484 5479 5475 5469 5465 5461 5456 5449 5443 5439 5437 5434 5432 5430 5428 5426
5595 5591 5586 5581 5577 5571 5566 5561 5556 5550 5545 5540 5534 5528 5522 5515 5509 5502 5495 5488 5480 5473 5468 5463 5459 5454 5450 5447 5443 5437 5432 5428 5423 5421 5419 5417 5414 5411
5587 5583 5578 5573 5568 5562 5557 5551 5546 5540 5534 5528 5522 5515 5509 5501 5494 5487 5479 5472 5464 5457 5451 5446 5442 5439 5435 5431 5428 5424 5420 5417 5413 5409 5407 5405 5401 5398
5579 5574 5569 5564 5559 5553 5547 5541 5535 5529 5523 5516 5509 5502 5495 5487 5479 5471 5464 5456 5449 5442 5435 5429 5425 5422 5419 5416 5413 5410 5406 5403 5400 5397 5395 5394 5390 5386
5571 5566 5560 5555 5549 5543 5537 5531 5524 5518 5511 5504 5496 5489 5480 5472 5464 5455 5448 5441 5434 5428 5421 5415 5410 5406 5404 5401 5398 5395 5392 5389 5387 5384 5382 5381 5380 5375
5562 5556 5551 5545 5539 5533 5526 5519 5513 5506 5498 5491 5483 5474 5466 5457 5449 5441 5433 5426 5419 5413 5406 5400 5395 5391 5390 5388 5386 5381 5377 5375 5373 5371 5369 5367 5367 5365
5553 5547 5541 5535 5529 5522 5515 5508 5501 5494 5486 5478 5469 5460 5452 5443 5434 5426 5419 5411 5405 5399 5393 5386 5381 5377 5375 5374 5374 5371 5363 5361 5360 5359 5357 5355 5354 5353
5543 5538 5532 5525 5519 5512 5505 5497 5490 5482 5473 5465 5456 5447 5438 5429 5421 5413 5405 5398 5391 5386 5380 5374 5368 5364 5361 5360 5360 5359 5354 5348 5346 5346 5345 5344 5343 5342
5534 5528 5522 5515 5508 5501 5494 5486 5478 5469 5461 5452 5442 5433 5424 5416 5408 5399 5392 5385 5379 5373 5368 5363 5358 5353 5349 5347 5346 5346 5344 5339 5334 5332 5331 5330 5329 5331
5524 5518 5511 5505 5498 5490 5482 5474 5466 5457 5448 5439 5430 5420 5411 5402 5394 5387 5379 5373 5367 5361 5356 5352 5348 5343 5339 5336 5334 5333 5331 5328 5325 5323 5321 5315 5314 5316
Wind_Speed
53 55 56 58 59 58 58 58 58 57 55 53 53 53 54 55 56 55 54 53 53 51 49 45 44 46 47 46 46 47 47 48 50 51 52 53 54 55
51 52 53 52 52 52 52 51 52 53 52 50 51 50 50 51 52 54 54 54 52 50 50 48 47 46 45 45 46 48 49 50 51 52 54 56 57 58
48 49 49 48 47 46 44 44 45 45 45 45 47 48 48 49 49 49 51 52 50 48 48 49 49 49 49 50 50 50 51 52 54 55 56 57 58 59
44 44 43 44 43 41 38 37 38 39 38 39 41 43 45 46 47 48 48 49 49 50 50 50 51 51 51 51 51 52 52 53 54 55 57 58 60 61
39 39 38 38 37 35 33 32 33 32 32 33 35 36 39 42 45 47 49 49 49 49 50 52 52 51 50 50 50 51 52 54 55 57 59 60 62 63
34 34 34 34 33 31 29 28 28 27 28 29 31 33 35 38 41 44 46 47 49 49 49 50 50 50 50 51 52 53 55 56 57 59 60 62 64 65
31 31 31 30 29 28 26 25 24 23 24 25 27 29 32 35 37 39 42 43 45 46 47 48 49 50 52 53 55 57 58 58 59 60 61 62 63 64
28 28 27 26 26 25 23 22 22 22 22 23 24 26 28 31 33 36 39 41 43 45 47 49 51 53 54 56 57 58 59 59 59 59 59 59 59 60
25 25 24 24 24 23 22 21 21 20 21 23 24 26 28 30 33 35 38 40 43 46 48 51 53 55 57 58 58 59 58 58 57 56 55 55 54 54
23 22 22 22 23 23 22 22 21 22 23 24 25 27 30 32 35 37 40 43 46 48 50 52 55 56 58 58 58 57 56 55 54 53 52 51 50 49
23 23 23 24 24 24 24 25 25 26 27 28 30 32 34 36 38 41 43 46 48 50 52 53 55 55 56 56 56 55 53 52 51 50 49 48 46 45
25 26 26 27 27 28 29 29 30 31 32 33 34 36 38 40 42 44 46 48 50 52 53 54 54 54 52 52 53 53 52 50 49 48 47 45 43 42
28 28 29 30 31 31 32 33 33 34 35 36 37 39 41 43 45 46 48 50 52 54 54 54 53 52 51 49 49 50 50 49 48 47 45 44 42 41
30 31 31 32 33 34 34 35 36 37 38 39 40 42 44 45 47 49 51 52 54 55 54 53 51 51 49 47 46 47 48 47 47 46 45 44 43 42
31 32 33 34 34 35 36 37 38 39 40 41 42 44 46 48 50 51 53 54 54 54 53 52 51 49 48 46 45 44 44 45 45 44 43 42 42 42
33 34 34 35 36 37 38 39 40 41 42 43 45 47 48 50 52 53 53 53 53 53 52 51 49 48 46 45 44 42 43 42 43 43 42 41 41 42
34 35 36 37 38 38 39 41 42 43 44 45 47 49 51 52 53 53 52 52 50 50 51 51 50 48 46 45 43 42 42 41 42 41 40 38 39 40
35 36 37 38 39 40 42 43 43 45 46 48 50 51 52 53 53 53 51 50 49 48 49 49 49 47 45 42 42 41 40 40 40 40 39 36 34 38
36 38 39 40 41 42 43 44 46 47 49 50 52 53 53 53 53 52 50 49 48 47 47 47 46 45 42 39 38 40 40 40 39 38 38 35 33 34
38 39 40 41 42 44 45 46 47 49 51 52 53 54 54 53 51 50 49 48 46 44 43 44 44 42 40 37 34 35 40 40 38 37 36 35 33 33
39 40 41 42 44 45 46 47 49 51 52 53 54 54 53 51 50 50 48 46 44 41 40 40 41 41 39 36 33 32 36 39 38 36 34 33 32 31
40 41 42 44 45 46 47 49 50 52 52 53 54 54 53 51 50 48 46 43 41 39 38 37 37 38 37 35 32 30 31 35 37 37 35 34 32 29
41 42 43 44 46 47 48 50 51 52 53 54 55 54 52 51 49 46 43 41 39 38 36 35 34 34 35 34 32 30 30 33 35 35 35 38 37 33
Wind_Direction
297 296 295 294 291 288 284 281 276 271 267 264 261 259 257 257 257 259 261 264 267 269 272 274 272 271 271 270 269 268 270 269 269 269 269 269 269 269
301 301 300 299 296 292 287 281 277 273 268 264 261 260 258 257 258 258 260 263 269 270 271 274 277 277 275 275 275 277 276 273 272 272 272 271 270 270
305 305 304 303 302 298 293 286 280 275 271 266 264 261 261 260 261 261 263 266 269 273 276 279 281 281 281 281 281 280 279 277 275 274 273 272 272 271
307 310 309 309 308 304 299 291 284 279 275 270 269 267 265 262 263 264 267 271 275 277 279 281 282 284 283 283 282 280 279 278 277 276 275 274 273 272
310 313 315 315 314 312 305 297 292 285 279 276 273 271 269 267 268 268 271 275 278 280 280 281 282 282 282 281 280 280 280 279 278 277 276 276 275 274
312 315 318 319 318 316 311 304 298 292 286 281 276 273 272 272 273 273 275 277 279 280 281 281 282 282 282 282 282 282 282 282 281 280 279 278 278 276
313 317 320 321 322 320 315 309 304 298 294 287 282 278 276 276 276 277 278 280 281 282 283 284 284 285 285 286 286 285 285 285 284 283 282 281 280 278
313 317 320 322 324 326 322 317 310 304 297 293 290 287 284 281 280 281 281 282 284 284 286 287 288 289 289 289 289 289 288 288 287 286 285 283 281 279
314 317 319 321 323 325 325 322 318 312 306 300 297 294 292 289 287 286 286 287 287 288 289 290 291 291 292 292 292 291 290 290 289 287 286 284 282 279
316 319 320 321 322 323 322 321 318 314 310 306 303 300 297 294 292 291 291 291 291 291 292 293 293 293 293 293 292 292 291 290 289 288 286 284 282 280
316 317 318 318 317 317 316 315 314 311 308 305 303 301 299 297 295 294 293 293 293 293 293 294 294 294 294 294 293 292 291 290 289 288 286 284 282 279
314 315 315 315 315 314 313 311 310 308 307 305 303 301 300 299 298 297 297 296 296 296 296 295 295 294 294 294 293 292 292 291 290 288 287 285 282 279
312 313 313 313 313 312 311 310 309 308 306 305 304 303 302 301 300 299 299 298 298 297 297 296 294 293 293 292 292 292 292 292 291 290 288 285 283 282
311 312 312 312 312 311 311 310 309 308 307 306 305 304 303 302 302 301 300 299 299 297 296 295 293 292 291 290 289 289 290 291 290 289 288 287 285 283
311 311 311 312 312 311 311 311 310 310 308 307 307 306 305 304 304 303 301 300 299 297 296 295 293 291 289 288 287 286 286 288 288 288 287 287 286 284
311 311 312 312 312 312 312 312 311 310 309 309 308 308 307 306 305 304 302 301 299 297 296 294 292 291 289 287 286 284 283 283 284 285 285 285 285 283
311 311 312 312 312 312 312 312 312 311 311 310 310 310 309 308 307 306 304 302 299 297 296 295 293 292 290 288 286 284 283 282 282 282 282 282 283 282
310 311 312 312 313 313 313 313 313 312 312 311 311 311 311 310 308 307 305 303 300 297 295 294 293 292 290 289 287 285 283 282 283 283 282 281 280 281
311 312 312 313 313 313 314 314 314 314 314 313 313 313 312 311 310 308 306 304 301 299 296 294 293 291 289 287 286 286 284 284 284 284 284 282 281 279
310 311 312 313 313 314 314 314 315 315 315 315 315 315 314 312 310 309 308 306 303 300 298 295 294 292 291 288 285 284 284 284 283 282 282 282 281 280
309 311 312 312 313 314 314 315 315 316 316 316 316 316 315 313 311 310 309 307 305 302 300 297 295 294 293 291 288 284 283 284 284 283 280 279 278 278
309 310 312 312 313 314 315 316 316 317 318 318 318 317 316 314 312 311 310 308 306 304 302 299 297 296 295 294 291 286 282 282 284 286 285 281 279 276
309 310 312 312 313 314 316 317 317 318 319 319 319 318 317 315 314 312 311 309 308 306 304 302 299 297 296 295 293 291 287 283 283 284 286 286 285 283